• In Romania
  • List of Countries
  • For 7 days
  • Water Temperature
  • Satellite Maps
  • Weather Map
  • Weather Widgets
  • user-avatar
    Login

    Hourly Weather Porech

    Today, 23 July, Monday

    Time Temperature Precipitation Wind Pressure Humidity
    00:00 +23°C° 0.1 mm 2 mps 757 mmHg 84%
    01:00 +21°C° 0 mm 3 mps 757 mmHg 85%
    02:00 +21°C° 0.4 mm 3 mps 756 mmHg 84%
    03:00 +21°C° 0.4 mm 4 mps 756 mmHg 82%
    04:00 +21°C° 0.4 mm 4 mps 756 mmHg 80%
    05:00 +22°C° 0.3 mm 4 mps 757 mmHg 78%
    06:00 +22°C° 0.3 mm 3 mps 757 mmHg 75%
    07:00 +25°C° 0 mm 2 mps 756 mmHg 72%
    08:00 +25°C° 0 mm 3 mps 757 mmHg 70%
    09:00 +25°C° 0 mm 3 mps 757 mmHg 68%
    10:00 +26°C° 0 mm 3 mps 757 mmHg 66%
    11:00 +27°C° 0 mm 3 mps 757 mmHg 60%
    12:00 +28°C° 0 mm 3 mps 757 mmHg 54%
    13:00 +29°C° 0 mm 3 mps 757 mmHg 48%
    14:00 +29°C° 0 mm 3 mps 757 mmHg 50%
    15:00 +29°C° 0 mm 4 mps 757 mmHg 53%
    16:00 +29°C° 0 mm 4 mps 756 mmHg 55%
    17:00 +28°C° 0 mm 3 mps 757 mmHg 62%
    18:00 +27°C° 0 mm 3 mps 757 mmHg 69%
    19:00 +25°C° 0 mm 2 mps 757 mmHg 76%
    20:00 +25°C° 0 mm 2 mps 758 mmHg 77%
    21:00 +24°C° 0 mm 2 mps 758 mmHg 78%
    22:00 +23°C° 0 mm 2 mps 759 mmHg 78%
    23:00 +23°C° 0 mm 2 mps 759 mmHg 78%

    Tomorrow, 24 July, Tuesday

    Time Temperature Precipitation Wind Pressure Humidity
    00:00 +23°C° 0 mm 2 mps 759 mmHg 78%
    01:00 +21°C° 0 mm 2 mps 759 mmHg 77%
    02:00 +21°C° 0.1 mm 2 mps 759 mmHg 76%
    03:00 +21°C° 0.1 mm 2 mps 759 mmHg 74%
    04:00 +21°C° 0.1 mm 2 mps 759 mmHg 73%
    05:00 +23°C° 0.2 mm 2 mps 759 mmHg 71%
    06:00 +24°C° 0.2 mm 2 mps 759 mmHg 69%
    07:00 +26°C° 0.2 mm 2 mps 759 mmHg 67%
    08:00 +27°C° 0 mm 2 mps 759 mmHg 60%
    09:00 +29°C° 0 mm 2 mps 759 mmHg 52%
    10:00 +31°C° 0 mm 1 mps 759 mmHg 45%
    11:00 +31°C° 0 mm 2 mps 758 mmHg 45%
    12:00 +32°C° 0 mm 2 mps 758 mmHg 44%
    13:00 +33°C° 0 mm 3 mps 758 mmHg 44%
    14:00 +33°C° 0 mm 3 mps 757 mmHg 47%
    15:00 +31°C° 0 mm 3 mps 757 mmHg 49%
    16:00 +32°C° 0 mm 4 mps 757 mmHg 52%
    17:00 +29°C° 0 mm 3 mps 757 mmHg 58%
    18:00 +28°C° 0 mm 3 mps 757 mmHg 65%
    19:00 +27°C° 0 mm 2 mps 757 mmHg 72%
    20:00 +26°C° 0.1 mm 2 mps 757 mmHg 74%
    21:00 +25°C° 0.1 mm 2 mps 758 mmHg 75%
    22:00 +24°C° 0.1 mm 2 mps 758 mmHg 77%
    23:00 +24°C° 0.1 mm 2 mps 758 mmHg 76%

    Day after tomorrow, 25 July, Wednesday

    Time Temperature Precipitation Wind Pressure Humidity
    00:00 +24°C° 0.1 mm 2 mps 758 mmHg 75%
    01:00 +24°C° 0.1 mm 2 mps 758 mmHg 75%
    02:00 +24°C° 0 mm 2 mps 758 mmHg 75%
    03:00 +23°C° 0 mm 2 mps 758 mmHg 75%
    04:00 +22°C° 0 mm 3 mps 758 mmHg 75%
    05:00 +24°C° 0 mm 3 mps 758 mmHg 73%
    06:00 +25°C° 0 mm 3 mps 758 mmHg 72%
    07:00 +26°C° 0 mm 3 mps 758 mmHg 70%
    08:00 +28°C° 0 mm 2 mps 758 mmHg 63%
    09:00 +30°C° 0 mm 2 mps 758 mmHg 56%
    10:00 +32°C° 0 mm 1 mps 758 mmHg 49%
    11:00 +32°C° 0 mm 1 mps 758 mmHg 49%
    12:00 +32°C° 0 mm 2 mps 758 mmHg 48%
    13:00 +32°C° 0 mm 2 mps 757 mmHg 48%
    14:00 +32°C° 0 mm 2 mps 757 mmHg 49%
    15:00 +32°C° 0 mm 2 mps 757 mmHg 51%
    16:00 +33°C° 0 mm 3 mps 757 mmHg 52%
    17:00 +30°C° 0 mm 2 mps 757 mmHg 58%
    18:00 +29°C° 0 mm 2 mps 757 mmHg 64%
    19:00 +27°C° 0 mm 2 mps 757 mmHg 70%
    20:00 +27°C° 0 mm 2 mps 757 mmHg 72%
    21:00 +26°C° 0 mm 2 mps 758 mmHg 74%
    22:00 +25°C° 0 mm 1 mps 758 mmHg 75%
    23:00 +25°C° 0 mm 2 mps 758 mmHg 76%

    26 July, Thursday

    Time Temperature Precipitation Wind Pressure Humidity
    00:00 +25°C° 0 mm 2 mps 758 mmHg 76%
    01:00 +25°C° 0 mm 2 mps 758 mmHg 76%
    02:00 +24°C° 0.2 mm 2 mps 758 mmHg 76%
    03:00 +24°C° 0.2 mm 2 mps 758 mmHg 75%
    04:00 +24°C° 0.2 mm 3 mps 758 mmHg 74%
    05:00 +25°C° 0 mm 3 mps 758 mmHg 72%
    06:00 +26°C° 0 mm 3 mps 758 mmHg 70%
    07:00 +27°C° 0 mm 3 mps 758 mmHg 69%
    08:00 +29°C° 0 mm 2 mps 758 mmHg 62%
    09:00 +31°C° 0 mm 2 mps 758 mmHg 56%
    10:00 +32°C° 0 mm 1 mps 758 mmHg 50%
    11:00 +34°C° 0 mm 2 mps 758 mmHg 49%
    12:00 +34°C° 0 mm 2 mps 758 mmHg 48%
    13:00 +35°C° 0 mm 2 mps 757 mmHg 46%
    14:00 +34°C° 0 mm 3 mps 757 mmHg 49%
    15:00 +33°C° 0 mm 3 mps 757 mmHg 52%
    16:00 +33°C° 0 mm 3 mps 757 mmHg 54%
    17:00 +30°C° 0 mm 3 mps 757 mmHg 60%
    18:00 +29°C° 0 mm 2 mps 757 mmHg 66%
    19:00 +28°C° 0 mm 2 mps 757 mmHg 72%
    20:00 +27°C° 0.2 mm 2 mps 757 mmHg 74%
    21:00 +26°C° 0.2 mm 2 mps 758 mmHg 76%
    22:00 +25°C° 0.2 mm 2 mps 758 mmHg 79%
    23:00 +25°C° 0 mm 2 mps 758 mmHg 79%

    27 July, Friday

    Time Temperature Precipitation Wind Pressure Humidity
    00:00 +25°C° 0 mm 2 mps 758 mmHg 79%
    01:00 +25°C° 0 mm 2 mps 758 mmHg 79%
    02:00 +24°C° 0.1 mm 2 mps 758 mmHg 79%
    03:00 +24°C° 0.1 mm 3 mps 758 mmHg 79%
    04:00 +24°C° 0.1 mm 3 mps 757 mmHg 79%
    05:00 +25°C° 0 mm 3 mps 757 mmHg 76%
    06:00 +26°C° 0 mm 2 mps 758 mmHg 74%
    07:00 +27°C° 0 mm 2 mps 758 mmHg 71%
    08:00 +29°C° 0 mm 2 mps 758 mmHg 64%
    09:00 +31°C° 0 mm 1 mps 758 mmHg 56%
    10:00 +33°C° 0 mm 1 mps 758 mmHg 49%
    11:00 +33°C° 0 mm 1 mps 757 mmHg 48%
    12:00 +35°C° 0 mm 2 mps 757 mmHg 47%
    13:00 +35°C° 0 mm 2 mps 757 mmHg 46%
    14:00 +34°C° 0 mm 2 mps 757 mmHg 48%
    15:00 +34°C° 0 mm 2 mps 756 mmHg 50%
    16:00 +34°C° 0 mm 2 mps 756 mmHg 52%
    17:00 +31°C° 0 mm 2 mps 756 mmHg 58%
    18:00 +30°C° 0 mm 2 mps 756 mmHg 64%
    19:00 +28°C° 0 mm 1 mps 756 mmHg 70%
    20:00 +27°C° 0.1 mm 1 mps 757 mmHg 72%
    21:00 +27°C° 0.1 mm 1 mps 757 mmHg 73%
    22:00 +26°C° 0.1 mm 1 mps 757 mmHg 74%
    23:00 +26°C° 0.1 mm 1 mps 757 mmHg 76%

    28 July, Saturday

    Time Temperature Precipitation Wind Pressure Humidity
    00:00 +25°C° 0.1 mm 1 mps 757 mmHg 77%
    01:00 +25°C° 0.1 mm 1 mps 757 mmHg 79%
    02:00 +25°C° 0 mm 1 mps 757 mmHg 79%
    03:00 +25°C° 0 mm 2 mps 757 mmHg 79%
    04:00 +24°C° 0 mm 2 mps 757 mmHg 80%
    05:00 +25°C° 0 mm 3 mps 757 mmHg 77%
    06:00 +26°C° 0 mm 3 mps 757 mmHg 74%
    07:00 +27°C° 0 mm 3 mps 757 mmHg 72%
    08:00 +30°C° 0 mm 3 mps 757 mmHg 63%
    09:00 +32°C° 0 mm 2 mps 757 mmHg 55%
    10:00 +35°C° 0 mm 2 mps 757 mmHg 46%
    11:00 +35°C° 0 mm 2 mps 757 mmHg 43%
    12:00 +36°C° 0 mm 2 mps 757 mmHg 41%
    13:00 +37°C° 0 mm 2 mps 756 mmHg 38%
    14:00 +36°C° 0 mm 3 mps 756 mmHg 41%
    15:00 +35°C° 0 mm 3 mps 756 mmHg 43%
    16:00 +35°C° 0 mm 3 mps 756 mmHg 45%
    17:00 +32°C° 0 mm 2 mps 756 mmHg 53%
    18:00 +30°C° 0 mm 2 mps 756 mmHg 61%
    19:00 +29°C° 0 mm 1 mps 756 mmHg 68%
    20:00 +28°C° 0 mm 1 mps 756 mmHg 70%
    21:00 +27°C° 0 mm 2 mps 757 mmHg 72%
    22:00 +26°C° 0 mm 2 mps 757 mmHg 73%
    23:00 +26°C° 0.1 mm 2 mps 757 mmHg 75%
    Show more